Year,Month,Day,Hour,Minute,Value (Times are PST for windgust in km/hr)
2019,09,28,00,42,3.20
2019,09,28,00,54,8.10
2019,09,28,00,55,3.20
2019,09,28,01,05,4.80
2019,09,28,01,06,4.80
2019,09,28,01,08,8.10
2019,09,28,01,09,4.80
2019,09,28,02,24,6.40
2019,09,28,02,25,3.20
2019,09,28,02,27,1.60
2019,09,28,02,34,4.80
2019,09,28,02,52,4.80
2019,09,28,02,53,6.40
2019,09,28,02,54,6.40
2019,09,28,03,26,6.40
2019,09,28,03,30,3.20
2019,09,28,03,31,6.40
2019,09,28,03,32,6.40
2019,09,28,03,33,6.40
2019,09,28,03,36,6.40
2019,09,28,03,37,6.40
2019,09,28,03,38,6.40
2019,09,28,03,39,9.60
2019,09,28,03,40,8.10
2019,09,28,03,41,8.10
2019,09,28,03,42,8.10
2019,09,28,03,43,6.40
2019,09,28,05,25,3.20
2019,09,28,05,26,8.10
2019,09,28,05,28,9.60
2019,09,28,05,29,8.10
2019,09,28,05,30,8.10
2019,09,28,05,31,4.80
2019,09,28,05,32,8.10
2019,09,28,05,33,11.30
2019,09,28,05,34,11.30
2019,09,28,05,35,9.60
2019,09,28,05,39,4.80
2019,09,28,05,43,3.20
2019,09,28,05,44,3.20
2019,09,28,05,49,8.10
2019,09,28,05,50,6.40
2019,09,28,05,52,6.40
2019,09,28,05,53,3.20
2019,09,28,05,54,8.10
2019,09,28,05,55,4.80
2019,09,28,05,56,4.80
2019,09,28,05,57,9.60
2019,09,28,05,58,8.10
2019,09,28,05,59,6.40
2019,09,28,06,03,8.10
2019,09,28,06,04,9.60
2019,09,28,06,05,11.30
2019,09,28,06,06,9.60
2019,09,28,06,07,6.40
2019,09,28,06,11,4.80
2019,09,28,06,12,8.10
2019,09,28,06,13,6.40
2019,09,28,06,50,6.40
2019,09,28,06,52,4.80
2019,09,28,06,53,6.40
2019,09,28,06,58,4.80
2019,09,28,07,02,6.40
2019,09,28,07,10,1.60
2019,09,28,07,18,1.60
2019,09,28,07,19,3.20
2019,09,28,07,24,1.60
2019,09,28,07,26,4.80
2019,09,28,07,27,6.40
2019,09,28,07,28,6.40
2019,09,28,07,31,8.10
2019,09,28,07,38,4.80
2019,09,28,07,41,1.60
2019,09,28,07,44,1.60
2019,09,28,07,45,3.20
2019,09,28,07,46,6.40
2019,09,28,07,47,4.80
2019,09,28,07,48,3.20
2019,09,28,07,49,4.80
2019,09,28,07,50,8.10
2019,09,28,07,55,4.80
2019,09,28,08,44,4.80
2019,09,28,08,54,3.20
2019,09,28,08,55,4.80
2019,09,28,08,57,1.60
2019,09,28,09,02,8.10
2019,09,28,09,03,6.40
2019,09,28,09,14,8.10
2019,09,28,09,15,9.60
2019,09,28,09,17,8.10
2019,09,28,09,21,6.40
2019,09,28,09,31,8.10
2019,09,28,09,33,8.10
2019,09,28,09,34,9.60
2019,09,28,09,39,8.10
2019,09,28,09,40,6.40
2019,09,28,09,45,6.40
2019,09,28,09,47,3.20
2019,09,28,09,48,1.60
2019,09,28,09,51,12.90
2019,09,28,09,52,11.30
2019,09,28,09,53,9.60
2019,09,28,09,54,8.10
2019,09,28,09,55,16.10
2019,09,28,09,56,16.10
2019,09,28,09,57,14.50
2019,09,28,09,58,11.30
2019,09,28,09,59,17.70
2019,09,28,10,00,11.30
2019,09,28,10,01,4.80
2019,09,28,10,02,11.30
2019,09,28,10,05,1.60
2019,09,28,10,06,8.10
2019,09,28,10,07,9.60
2019,09,28,10,13,1.60
2019,09,28,10,15,6.40
2019,09,28,10,16,6.40
2019,09,28,10,17,11.30
2019,09,28,10,18,16.10
2019,09,28,10,21,14.50
2019,09,28,10,22,6.40
2019,09,28,10,23,4.80
2019,09,28,10,24,8.10
2019,09,28,10,25,17.70
2019,09,28,10,26,6.40
2019,09,28,10,27,16.10
2019,09,28,10,29,8.10
2019,09,28,10,30,12.90
2019,09,28,10,31,4.80
2019,09,28,10,32,11.30
2019,09,28,10,34,11.30
2019,09,28,10,35,4.80
2019,09,28,10,36,11.30
2019,09,28,10,37,3.20
2019,09,28,10,38,8.10
2019,09,28,10,39,4.80
2019,09,28,10,40,14.50
2019,09,28,10,42,6.40
2019,09,28,10,43,17.70
2019,09,28,10,44,6.40
2019,09,28,10,45,16.10
2019,09,28,10,47,1.60
2019,09,28,10,48,9.60
2019,09,28,10,49,9.60
2019,09,28,10,50,6.40
2019,09,28,10,51,14.50
2019,09,28,10,52,6.40
2019,09,28,10,54,8.10
2019,09,28,10,55,4.80
2019,09,28,10,56,14.50
2019,09,28,10,57,4.80
2019,09,28,10,58,9.60
2019,09,28,10,59,16.10
2019,09,28,11,00,22.50
2019,09,28,11,01,8.10
2019,09,28,11,02,6.40
2019,09,28,11,03,3.20
2019,09,28,11,05,1.60
2019,09,28,11,06,3.20
2019,09,28,11,07,8.10
2019,09,28,11,08,4.80
2019,09,28,11,09,19.30
2019,09,28,11,10,16.10
2019,09,28,11,11,19.30
2019,09,28,11,12,20.90
2019,09,28,11,13,19.30
2019,09,28,11,14,9.60
2019,09,28,11,15,25.70
2019,09,28,11,16,11.30
2019,09,28,11,17,9.60
2019,09,28,11,18,16.10
2019,09,28,11,19,17.70
2019,09,28,11,20,9.60
2019,09,28,11,21,9.60
2019,09,28,11,22,17.70
2019,09,28,11,23,24.20
2019,09,28,11,24,8.10
2019,09,28,11,25,19.30
2019,09,28,11,26,30.60
2019,09,28,11,27,22.50
2019,09,28,11,28,24.20
2019,09,28,11,29,22.50
2019,09,28,11,30,25.70
2019,09,28,11,31,25.70
2019,09,28,11,32,22.50
2019,09,28,11,33,22.50
2019,09,28,11,34,19.30
2019,09,28,11,35,22.50
2019,09,28,11,36,14.50
2019,09,28,11,37,17.70
2019,09,28,11,38,24.20
2019,09,28,11,39,16.10
2019,09,28,11,40,17.70
2019,09,28,11,41,17.70
2019,09,28,11,42,24.20
2019,09,28,11,43,19.30
2019,09,28,11,44,16.10
2019,09,28,11,45,19.30
2019,09,28,11,46,20.90
2019,09,28,11,47,20.90
2019,09,28,11,48,14.50
2019,09,28,11,49,14.50
2019,09,28,11,50,16.10
2019,09,28,11,51,16.10
2019,09,28,11,52,24.20
2019,09,28,11,53,25.70
2019,09,28,11,54,8.10
2019,09,28,11,55,20.90
2019,09,28,11,56,25.70
2019,09,28,11,57,25.70
2019,09,28,11,58,20.90
2019,09,28,11,59,25.70
2019,09,28,12,00,20.90
2019,09,28,12,01,19.30
2019,09,28,12,02,27.40
2019,09,28,12,03,20.90
2019,09,28,12,04,14.50
2019,09,28,12,05,16.10
2019,09,28,12,06,27.40
2019,09,28,12,07,22.50
2019,09,28,12,08,16.10
2019,09,28,12,09,24.20
2019,09,28,12,10,20.90
2019,09,28,12,11,16.10
2019,09,28,12,12,24.20
2019,09,28,12,13,24.20
2019,09,28,12,14,22.50
2019,09,28,12,15,19.30
2019,09,28,12,16,16.10
2019,09,28,12,17,24.20
2019,09,28,12,18,20.90
2019,09,28,12,19,19.30
2019,09,28,12,20,16.10
2019,09,28,12,21,16.10
2019,09,28,12,22,22.50
2019,09,28,12,23,20.90
2019,09,28,12,24,25.70
2019,09,28,12,25,17.70
2019,09,28,12,26,29.00
2019,09,28,12,27,24.20
2019,09,28,12,28,14.50
2019,09,28,12,29,4.80
2019,09,28,12,30,30.60
2019,09,28,12,31,19.30
2019,09,28,12,32,17.70
2019,09,28,12,33,19.30
2019,09,28,12,34,17.70
2019,09,28,12,35,20.90
2019,09,28,12,36,14.50
2019,09,28,12,37,25.70
2019,09,28,12,38,25.70
2019,09,28,12,39,35.40
2019,09,28,12,40,11.30
2019,09,28,12,41,22.50
2019,09,28,12,42,20.90
2019,09,28,12,43,27.40
2019,09,28,12,44,20.90
2019,09,28,12,45,14.50
2019,09,28,12,46,22.50
2019,09,28,12,47,11.30
2019,09,28,12,48,24.20
2019,09,28,12,49,14.50
2019,09,28,12,50,11.30
2019,09,28,12,51,20.90
2019,09,28,12,52,24.20
2019,09,28,12,53,19.30
2019,09,28,12,54,22.50
2019,09,28,12,55,27.40
2019,09,28,12,56,22.50
2019,09,28,12,57,29.00
2019,09,28,12,58,16.10
2019,09,28,12,59,16.10
2019,09,28,13,00,9.60
2019,09,28,13,01,16.10
2019,09,28,13,02,16.10
2019,09,28,13,03,8.10
2019,09,28,13,04,16.10
2019,09,28,13,05,3.20
2019,09,28,13,07,4.80
2019,09,28,13,08,24.20
2019,09,28,13,09,16.10
2019,09,28,13,10,16.10
2019,09,28,13,11,17.70
2019,09,28,13,12,19.30
2019,09,28,13,13,20.90
2019,09,28,13,14,19.30
2019,09,28,13,15,19.30
2019,09,28,13,16,14.50
2019,09,28,13,17,16.10
2019,09,28,13,18,19.30
2019,09,28,13,19,17.70
2019,09,28,13,20,17.70
2019,09,28,13,21,20.90
2019,09,28,13,22,16.10
2019,09,28,13,23,22.50
2019,09,28,13,24,14.50
2019,09,28,13,25,16.10
2019,09,28,13,26,11.30
2019,09,28,13,27,22.50
2019,09,28,13,28,19.30
2019,09,28,13,29,11.30
2019,09,28,13,30,17.70
2019,09,28,13,31,3.20
2019,09,28,13,32,8.10
2019,09,28,13,33,9.60
2019,09,28,13,34,9.60
2019,09,28,13,35,20.90
2019,09,28,13,36,22.50
2019,09,28,13,37,24.20
2019,09,28,13,38,16.10
2019,09,28,13,39,19.30
2019,09,28,13,40,1.60
2019,09,28,13,41,12.90
2019,09,28,13,42,1.60
2019,09,28,13,43,11.30
2019,09,28,13,44,14.50
2019,09,28,13,45,25.70
2019,09,28,13,46,16.10
2019,09,28,13,47,17.70
2019,09,28,13,48,17.70
2019,09,28,13,49,22.50
2019,09,28,13,50,27.40
2019,09,28,13,51,17.70
2019,09,28,13,52,11.30
2019,09,28,13,53,12.90
2019,09,28,13,54,8.10
2019,09,28,13,55,16.10
2019,09,28,13,56,24.20
2019,09,28,13,57,14.50
2019,09,28,13,58,19.30
2019,09,28,13,59,14.50
2019,09,28,14,00,17.70
2019,09,28,14,01,22.50
2019,09,28,14,02,17.70
2019,09,28,14,03,11.30
2019,09,28,14,04,19.30
2019,09,28,14,05,17.70
2019,09,28,14,06,16.10
2019,09,28,14,07,8.10
2019,09,28,14,08,17.70
2019,09,28,14,09,16.10
2019,09,28,14,10,6.40
2019,09,28,14,11,14.50
2019,09,28,14,12,16.10
2019,09,28,14,13,16.10
2019,09,28,14,14,14.50
2019,09,28,14,15,14.50
2019,09,28,14,16,8.10
2019,09,28,14,17,11.30
2019,09,28,14,18,9.60
2019,09,28,14,19,11.30
2019,09,28,14,20,16.10
2019,09,28,14,21,19.30
2019,09,28,14,22,24.20
2019,09,28,14,23,17.70
2019,09,28,14,24,3.20
2019,09,28,14,25,16.10
2019,09,28,14,26,17.70
2019,09,28,14,27,17.70
2019,09,28,14,28,22.50
2019,09,28,14,29,11.30
2019,09,28,14,30,19.30
2019,09,28,14,31,16.10
2019,09,28,14,32,14.50
2019,09,28,14,33,19.30
2019,09,28,14,34,14.50
2019,09,28,14,35,11.30
2019,09,28,14,36,14.50
2019,09,28,14,37,8.10
2019,09,28,14,38,4.80
2019,09,28,14,39,16.10
2019,09,28,14,40,14.50
2019,09,28,14,41,14.50
2019,09,28,14,42,3.20
2019,09,28,14,43,11.30
2019,09,28,14,44,17.70
2019,09,28,14,45,17.70
2019,09,28,14,46,11.30
2019,09,28,14,47,9.60
2019,09,28,14,48,11.30
2019,09,28,14,49,11.30
2019,09,28,14,50,8.10
2019,09,28,14,51,17.70
2019,09,28,14,52,20.90
2019,09,28,14,53,19.30
2019,09,28,14,54,20.90
2019,09,28,14,55,20.90
2019,09,28,14,56,17.70
2019,09,28,14,57,11.30
2019,09,28,14,58,17.70
2019,09,28,14,59,20.90
2019,09,28,15,00,8.10
2019,09,28,15,01,25.70
2019,09,28,15,02,12.90
2019,09,28,15,03,22.50
2019,09,28,15,04,20.90
2019,09,28,15,05,17.70
2019,09,28,15,06,8.10
2019,09,28,15,07,3.20
2019,09,28,15,08,3.20
2019,09,28,15,09,9.60
2019,09,28,15,10,19.30
2019,09,28,15,11,12.90
2019,09,28,15,12,4.80
2019,09,28,15,13,9.60
2019,09,28,15,14,14.50
2019,09,28,15,15,9.60
2019,09,28,15,16,11.30
2019,09,28,15,17,8.10
2019,09,28,15,18,9.60
2019,09,28,15,19,19.30
2019,09,28,15,20,17.70
2019,09,28,15,21,6.40
2019,09,28,15,22,3.20
2019,09,28,15,23,4.80
2019,09,28,15,24,19.30
2019,09,28,15,25,24.20
2019,09,28,15,26,9.60
2019,09,28,15,27,14.50
2019,09,28,15,28,20.90
2019,09,28,15,29,16.10
2019,09,28,15,30,17.70
2019,09,28,15,31,20.90
2019,09,28,15,32,17.70
2019,09,28,15,33,14.50
2019,09,28,15,34,22.50
2019,09,28,15,35,25.70
2019,09,28,15,36,20.90
2019,09,28,15,37,22.50
2019,09,28,15,38,25.70
2019,09,28,15,39,25.70
2019,09,28,15,40,22.50
2019,09,28,15,41,4.80
2019,09,28,15,42,27.40
2019,09,28,15,43,11.30
2019,09,28,15,44,22.50
2019,09,28,15,45,24.20
2019,09,28,15,46,20.90
2019,09,28,15,47,19.30
2019,09,28,15,48,27.40
2019,09,28,15,49,32.20
2019,09,28,15,50,25.70
2019,09,28,15,51,22.50
2019,09,28,15,52,17.70
2019,09,28,15,53,17.70
2019,09,28,15,54,20.90
2019,09,28,15,55,16.10
2019,09,28,15,56,27.40
2019,09,28,15,57,22.50
2019,09,28,15,58,22.50
2019,09,28,15,59,17.70
2019,09,28,16,00,11.30
2019,09,28,16,01,17.70
2019,09,28,16,02,27.40
2019,09,28,16,03,19.30
2019,09,28,16,04,25.70
2019,09,28,16,05,24.20
2019,09,28,16,06,17.70
2019,09,28,16,07,19.30
2019,09,28,16,08,16.10
2019,09,28,16,09,22.50
2019,09,28,16,10,11.30
2019,09,28,16,11,17.70
2019,09,28,16,12,16.10
2019,09,28,16,13,9.60
2019,09,28,16,14,4.80
2019,09,28,16,16,3.20
2019,09,28,16,17,9.60
2019,09,28,16,18,11.30
2019,09,28,16,19,9.60
2019,09,28,16,20,19.30
2019,09,28,16,21,14.50
2019,09,28,16,22,29.00
2019,09,28,16,23,20.90
2019,09,28,16,24,17.70
2019,09,28,16,25,17.70
2019,09,28,16,26,20.90
2019,09,28,16,27,12.90
2019,09,28,16,28,17.70
2019,09,28,16,29,22.50
2019,09,28,16,30,25.70
2019,09,28,16,31,24.20
2019,09,28,16,32,3.20
2019,09,28,16,33,11.30
2019,09,28,16,34,17.70
2019,09,28,16,35,25.70
2019,09,28,16,36,20.90
2019,09,28,16,37,27.40
2019,09,28,16,38,24.20
2019,09,28,16,39,20.90
2019,09,28,16,40,24.20
2019,09,28,16,41,22.50
2019,09,28,16,42,22.50
2019,09,28,16,43,19.30
2019,09,28,16,44,19.30
2019,09,28,16,45,20.90
2019,09,28,16,46,16.10
2019,09,28,16,47,11.30
2019,09,28,16,48,4.80
2019,09,28,16,49,11.30
2019,09,28,16,50,24.20
2019,09,28,16,51,33.80
2019,09,28,16,52,19.30
2019,09,28,16,53,17.70
2019,09,28,16,54,22.50
2019,09,28,16,55,24.20
2019,09,28,16,56,24.20
2019,09,28,16,57,20.90
2019,09,28,16,58,9.60
2019,09,28,16,59,20.90
2019,09,28,17,00,17.70
2019,09,28,17,01,14.50
2019,09,28,17,02,19.30
2019,09,28,17,03,19.30
2019,09,28,17,04,16.10
2019,09,28,17,05,17.70
2019,09,28,17,06,22.50
2019,09,28,17,07,24.20
2019,09,28,17,08,20.90
2019,09,28,17,09,24.20
2019,09,28,17,10,16.10
2019,09,28,17,11,24.20
2019,09,28,17,12,20.90
2019,09,28,17,13,25.70
2019,09,28,17,14,20.90
2019,09,28,17,15,9.60
2019,09,28,17,16,16.10
2019,09,28,17,17,4.80
2019,09,28,17,18,16.10
2019,09,28,17,19,6.40
2019,09,28,17,20,14.50
2019,09,28,17,21,16.10
2019,09,28,17,22,20.90
2019,09,28,17,23,12.90
2019,09,28,17,24,9.60
2019,09,28,17,25,16.10
2019,09,28,17,26,16.10
2019,09,28,17,27,22.50
2019,09,28,17,28,25.70
2019,09,28,17,29,17.70
2019,09,28,17,30,16.10
2019,09,28,17,31,12.90
2019,09,28,17,32,11.30
2019,09,28,17,33,6.40
2019,09,28,17,34,9.60
2019,09,28,17,35,8.10
2019,09,28,17,36,20.90
2019,09,28,17,37,16.10
2019,09,28,17,38,17.70
2019,09,28,17,39,22.50
2019,09,28,17,40,19.30
2019,09,28,17,41,22.50
2019,09,28,17,42,11.30
2019,09,28,17,43,22.50
2019,09,28,17,44,20.90
2019,09,28,17,45,19.30
2019,09,28,17,46,16.10
2019,09,28,17,47,19.30
2019,09,28,17,48,16.10
2019,09,28,17,49,17.70
2019,09,28,17,50,20.90
2019,09,28,17,51,20.90
2019,09,28,17,52,9.60
2019,09,28,17,53,4.80
2019,09,28,17,54,11.30
2019,09,28,17,55,4.80
2019,09,28,17,56,11.30
2019,09,28,17,57,25.70
2019,09,28,17,58,9.60
2019,09,28,17,59,24.20
2019,09,28,18,00,25.70
2019,09,28,18,01,19.30
2019,09,28,18,02,19.30
2019,09,28,18,03,20.90
2019,09,28,18,04,19.30
2019,09,28,18,05,16.10
2019,09,28,18,06,19.30
2019,09,28,18,07,16.10
2019,09,28,18,08,14.50
2019,09,28,18,09,19.30
2019,09,28,18,10,16.10
2019,09,28,18,11,19.30
2019,09,28,18,12,16.10
2019,09,28,18,13,17.70
2019,09,28,18,14,14.50
2019,09,28,18,15,24.20
2019,09,28,18,16,19.30
2019,09,28,18,17,17.70
2019,09,28,18,18,6.40
2019,09,28,18,19,16.10
2019,09,28,18,20,11.30
2019,09,28,18,21,22.50
2019,09,28,18,22,20.90
2019,09,28,18,23,16.10
2019,09,28,18,24,20.90
2019,09,28,18,25,16.10
2019,09,28,18,26,11.30
2019,09,28,18,27,11.30
2019,09,28,18,28,16.10
2019,09,28,18,29,17.70
2019,09,28,18,30,16.10
2019,09,28,18,31,17.70
2019,09,28,18,32,17.70
2019,09,28,18,33,17.70
2019,09,28,18,34,19.30
2019,09,28,18,35,24.20
2019,09,28,18,36,20.90
2019,09,28,18,37,19.30
2019,09,28,18,38,16.10
2019,09,28,18,39,16.10
2019,09,28,18,40,14.50
2019,09,28,18,41,11.30
2019,09,28,18,42,12.90
2019,09,28,18,43,17.70
2019,09,28,18,44,16.10
2019,09,28,18,45,14.50
2019,09,28,18,46,3.20
2019,09,28,18,47,11.30
2019,09,28,18,48,16.10
2019,09,28,18,49,16.10
2019,09,28,18,50,16.10
2019,09,28,18,51,11.30
2019,09,28,18,52,9.60
2019,09,28,18,53,11.30
2019,09,28,18,54,14.50
2019,09,28,18,55,11.30
2019,09,28,18,56,8.10
2019,09,28,18,57,14.50
2019,09,28,18,58,14.50
2019,09,28,18,59,14.50
2019,09,28,19,00,8.10
2019,09,28,19,01,9.60
2019,09,28,19,02,9.60
2019,09,28,19,03,11.30
2019,09,28,19,04,16.10
2019,09,28,19,05,14.50
2019,09,28,19,06,8.10
2019,09,28,19,07,14.50
2019,09,28,19,08,17.70
2019,09,28,19,09,11.30
2019,09,28,19,10,8.10
2019,09,28,19,11,4.80
2019,09,28,19,12,11.30
2019,09,28,19,13,17.70
2019,09,28,19,14,14.50
2019,09,28,19,15,14.50
2019,09,28,19,16,16.10
2019,09,28,19,17,14.50
2019,09,28,19,18,9.60
2019,09,28,19,19,1.60
2019,09,28,19,20,4.80
2019,09,28,19,21,3.20
2019,09,28,19,22,8.10
2019,09,28,19,23,1.60
2019,09,28,19,25,14.50
2019,09,28,19,26,11.30
2019,09,28,19,27,4.80
2019,09,28,19,28,1.60
2019,09,28,19,29,3.20
2019,09,28,19,30,1.60
2019,09,28,19,32,9.60
2019,09,28,19,33,11.30
2019,09,28,19,34,12.90
2019,09,28,19,35,11.30
2019,09,28,19,36,12.90
2019,09,28,19,37,9.60
2019,09,28,19,38,1.60
2019,09,28,19,39,8.10
2019,09,28,19,40,8.10
2019,09,28,19,41,3.20
2019,09,28,19,44,1.60
2019,09,28,19,46,1.60
2019,09,28,19,47,3.20
2019,09,28,19,48,1.60
2019,09,28,19,49,3.20
2019,09,28,19,50,3.20
2019,09,28,19,53,4.80
2019,09,28,19,54,3.20
2019,09,28,19,56,4.80
2019,09,28,19,57,4.80
2019,09,28,19,58,14.50
2019,09,28,19,59,9.60
2019,09,28,20,00,4.80
2019,09,28,20,01,14.50
2019,09,28,20,02,1.60
2019,09,28,20,05,1.60
2019,09,28,20,06,9.60
2019,09,28,20,08,3.20
2019,09,28,20,09,4.80
2019,09,28,20,10,8.10
2019,09,28,20,11,3.20
2019,09,28,20,12,4.80
2019,09,28,20,16,3.20
2019,09,28,20,17,4.80
2019,09,28,20,18,8.10
2019,09,28,20,19,8.10
2019,09,28,20,20,1.60
2019,09,28,20,21,1.60
2019,09,28,20,24,4.80
2019,09,28,20,25,16.10
2019,09,28,20,26,1.60
2019,09,28,20,27,8.10
2019,09,28,20,31,4.80
2019,09,28,20,32,6.40
2019,09,28,20,33,1.60
2019,09,28,20,35,4.80
2019,09,28,20,37,3.20
2019,09,28,20,38,4.80
2019,09,28,20,39,4.80
2019,09,28,20,40,4.80
2019,09,28,20,44,9.60
2019,09,28,20,45,4.80
2019,09,28,20,46,8.10
2019,09,28,20,47,3.20
2019,09,28,20,49,1.60
2019,09,28,20,50,1.60
2019,09,28,20,51,1.60
2019,09,28,20,53,11.30
2019,09,28,20,54,4.80
2019,09,28,20,55,1.60
2019,09,28,20,56,1.60
2019,09,28,20,59,4.80
2019,09,28,21,00,4.80
2019,09,28,21,01,4.80
2019,09,28,21,15,3.20
2019,09,28,21,16,4.80
2019,09,28,21,17,8.10
2019,09,28,21,18,1.60
2019,09,28,21,20,3.20
2019,09,28,21,21,6.40
2019,09,28,21,22,1.60
2019,09,28,21,23,3.20
2019,09,28,21,24,3.20
2019,09,28,21,25,3.20
2019,09,28,21,26,3.20
2019,09,28,21,28,3.20
2019,09,28,21,29,3.20
2019,09,28,21,30,4.80
2019,09,28,21,31,3.20
2019,09,28,21,32,1.60
2019,09,28,21,33,4.80
2019,09,28,21,34,3.20
2019,09,28,21,35,3.20
2019,09,28,21,39,1.60
2019,09,28,21,47,4.80
2019,09,28,21,50,6.40
2019,09,28,21,51,3.20
2019,09,28,21,52,1.60
2019,09,28,21,53,4.80
2019,09,28,21,54,3.20
2019,09,28,21,55,8.10
2019,09,28,21,57,4.80
2019,09,28,21,59,8.10
2019,09,28,22,00,6.40
2019,09,28,22,01,11.30
2019,09,28,22,02,11.30
2019,09,28,22,03,3.20
2019,09,28,22,04,6.40
2019,09,28,22,05,6.40
2019,09,28,22,06,8.10
2019,09,28,22,07,1.60
2019,09,28,22,08,4.80
2019,09,28,22,09,6.40
2019,09,28,22,10,6.40
2019,09,28,22,11,3.20
2019,09,28,22,12,9.60
2019,09,28,22,13,4.80
2019,09,28,22,14,3.20
2019,09,28,22,18,3.20
2019,09,28,22,19,4.80
2019,09,28,22,20,1.60
2019,09,28,22,29,3.20
2019,09,28,22,31,1.60
2019,09,28,22,35,4.80
2019,09,28,22,42,3.20
2019,09,28,22,44,3.20
2019,09,28,22,45,6.40
2019,09,28,22,46,3.20
2019,09,28,22,50,9.60
2019,09,28,22,51,4.80
2019,09,28,22,52,4.80
2019,09,28,22,53,6.40
2019,09,28,22,54,4.80
2019,09,28,22,55,8.10
2019,09,28,22,56,16.10
2019,09,28,22,57,14.50
2019,09,28,22,58,8.10
2019,09,28,22,59,8.10
2019,09,28,23,04,6.40
2019,09,28,23,05,3.20
2019,09,28,23,12,4.80
2019,09,28,23,45,8.10
2019,09,28,23,46,6.40
2019,09,28,23,47,4.80
2019,09,28,23,48,4.80
2019,09,28,23,49,4.80
2019,09,28,23,50,6.40
2019,09,28,23,51,4.80
2019,09,28,23,52,6.40
2019,09,28,23,53,8.10
2019,09,28,23,54,4.80
2019,09,28,23,55,4.80
2019,09,28,23,56,4.80
2019,09,28,23,57,8.10
2019,09,28,23,58,6.40
2019,09,28,23,59,8.10
